Time,TemperatureF,DewpointF,PressureIn,WindDirection,WindDirectionDegrees,WindSpeedMPH,WindSpeedGustMPH,Humidity,HourlyPrecipIn,Conditions,Clouds,dailyrainin,SoftwareType,DateUTC
2013-08-11 00:02:00,67.0,61.0,30.14,South,178,0.0,1.0,81,0.00,,,0.00,,2013-08-11 05:02:00,
2013-08-11 00:16:00,67.0,61.0,30.14,South,172,0.0,2.0,81,0.00,,,0.00,,2013-08-11 05:16:00,
2013-08-11 00:23:00,67.0,61.0,30.14,South,175,0.0,3.0,82,0.00,,,0.00,,2013-08-11 05:23:00,
2013-08-11 00:35:00,67.0,61.0,30.15,SSW,198,0.0,3.0,82,0.00,,,0.00,,2013-08-11 05:35:00,
2013-08-11 00:53:00,67.0,62.0,30.16,South,169,0.0,3.0,84,0.00,,,0.00,,2013-08-11 05:53:00,
2013-08-11 01:24:00,67.0,62.0,30.16,SSE,168,0.0,4.0,83,0.00,,,0.00,,2013-08-11 06:24:00,
2013-08-11 01:34:00,67.0,62.0,30.16,South,179,0.0,3.0,83,0.00,,,0.00,,2013-08-11 06:34:00,
2013-08-11 01:47:00,67.0,62.0,30.16,South,187,0.0,5.0,83,0.00,,,0.00,,2013-08-11 06:47:00,
2013-08-11 02:05:00,67.0,62.0,30.16,South,189,1.0,4.0,85,0.00,,,0.00,,2013-08-11 07:05:00,
2013-08-11 02:14:00,67.0,63.0,30.16,South,180,1.0,4.0,86,0.00,,,0.00,,2013-08-11 07:14:00,
2013-08-11 02:24:00,66.0,62.0,30.16,South,176,1.0,3.0,86,0.00,,,0.00,,2013-08-11 07:24:00,
2013-08-11 02:36:00,66.0,62.0,30.16,SE,138,1.0,4.0,86,0.00,,,0.00,,2013-08-11 07:36:00,
2013-08-11 02:44:00,66.0,62.0,30.15,South,184,1.0,4.0,87,0.00,,,0.00,,2013-08-11 07:44:00,
2013-08-11 02:53:00,66.0,62.0,30.16,SSW,199,1.0,4.0,88,0.00,,,0.00,,2013-08-11 07:53:00,
2013-08-11 03:06:00,66.0,62.0,30.16,SSW,202,1.0,4.0,88,0.00,,,0.00,,2013-08-11 08:06:00,
2013-08-11 03:15:00,66.0,62.0,30.16,SSE,163,0.0,3.0,88,0.00,,,0.00,,2013-08-11 08:15:00,
2013-08-11 03:25:00,66.0,62.0,30.16,SSW,192,1.0,3.0,88,0.00,,,0.00,,2013-08-11 08:25:00,
2013-08-11 03:34:00,65.0,62.0,30.16,SSW,209,0.0,3.0,89,0.00,,,0.00,,2013-08-11 08:34:00,
2013-08-11 03:45:00,65.0,62.0,30.16,SSW,209,0.0,1.0,89,0.00,,,0.00,,2013-08-11 08:45:00,
2013-08-11 03:54:00,65.0,62.0,30.16,SSW,209,0.0,0.0,89,0.00,,,0.00,,2013-08-11 08:54:00,
2013-08-11 04:13:00,64.0,61.0,30.15,SSW,209,0.0,0.0,90,0.00,,,0.00,,2013-08-11 09:13:00,
2013-08-11 04:25:00,64.0,62.0,30.15,SSW,209,0.0,0.0,92,0.00,,,0.00,,2013-08-11 09:25:00,
2013-08-11 04:34:00,64.0,62.0,30.14,South,178,0.0,3.0,93,0.00,,,0.00,,2013-08-11 09:34:00,
2013-08-11 04:43:00,64.0,62.0,30.14,SSW,199,1.0,3.0,93,0.00,,,0.00,,2013-08-11 09:43:00,
2013-08-11 05:03:00,64.0,62.0,30.14,South,179,1.0,4.0,92,0.00,,,0.00,,2013-08-11 10:03:00,
2013-08-11 05:13:00,64.0,62.0,30.13,South,182,1.0,4.0,92,0.00,,,0.00,,2013-08-11 10:13:00,
2013-08-11 05:43:00,64.0,62.0,30.13,South,185,0.0,1.0,92,0.00,,,0.00,,2013-08-11 10:43:00,
2013-08-11 05:54:00,63.0,61.0,30.13,South,184,0.0,2.0,93,0.00,,,0.00,,2013-08-11 10:54:00,
2013-08-11 06:05:00,63.0,61.0,30.13,South,184,0.0,1.0,93,0.00,,,0.00,,2013-08-11 11:05:00,
2013-08-11 06:12:00,63.0,61.0,30.13,South,182,0.0,2.0,94,0.00,,,0.00,,2013-08-11 11:12:00,
2013-08-11 06:22:00,63.0,61.0,30.13,South,175,0.0,4.0,94,0.00,,,0.00,,2013-08-11 11:22:00,
2013-08-11 06:35:00,63.0,61.0,30.13,South,180,0.0,2.0,94,0.00,,,0.00,,2013-08-11 11:35:00,
2013-08-11 06:46:00,63.0,62.0,30.13,South,190,0.0,2.0,95,0.00,,,0.00,,2013-08-11 11:46:00,
2013-08-11 06:56:00,64.0,63.0,30.13,South,188,0.0,3.0,95,0.00,,,0.00,,2013-08-11 11:56:00,
2013-08-11 07:05:00,64.0,62.0,30.13,South,185,0.0,1.0,94,0.00,,,0.00,,2013-08-11 12:05:00,
2013-08-11 07:34:00,65.0,63.0,30.13,South,173,0.0,2.0,94,0.00,,,0.00,,2013-08-11 12:34:00,
2013-08-11 07:44:00,66.0,65.0,30.13,South,178,0.0,4.0,95,0.00,,,0.00,,2013-08-11 12:44:00,
2013-08-11 07:52:00,67.0,65.0,30.14,SW,231,0.0,2.0,93,0.00,,,0.00,,2013-08-11 12:52:00,
2013-08-11 08:04:00,68.0,65.0,30.14,SW,221,1.0,4.0,91,0.00,,,0.00,,2013-08-11 13:04:00,
2013-08-11 08:14:00,69.0,66.0,30.14,SSW,206,1.0,5.0,89,0.00,,,0.00,,2013-08-11 13:14:00,
2013-08-11 08:36:00,70.0,66.0,30.13,SW,223,1.0,4.0,87,0.00,,,0.00,,2013-08-11 13:36:00,
2013-08-11 08:44:00,70.0,66.0,30.14,SW,222,1.0,5.0,87,0.00,,,0.00,,2013-08-11 13:44:00,
2013-08-11 08:55:00,70.0,66.0,30.14,SSW,202,0.0,3.0,87,0.00,,,0.00,,2013-08-11 13:55:00,
2013-08-11 09:02:00,71.0,67.0,30.14,SSW,209,3.0,6.0,86,0.00,,,0.00,,2013-08-11 14:02:00,
2013-08-11 09:14:00,73.0,68.0,30.14,SW,229,3.0,6.0,85,0.00,,,0.00,,2013-08-11 14:14:00,
2013-08-11 09:34:00,74.0,68.0,30.14,SSW,202,3.0,7.0,81,0.00,,,0.00,,2013-08-11 14:34:00,
2013-08-11 09:45:00,75.0,69.0,30.14,South,190,2.0,7.0,82,0.00,,,0.00,,2013-08-11 14:45:00,
2013-08-11 09:55:00,76.0,69.0,30.13,SSW,213,3.0,8.0,80,0.00,,,0.00,,2013-08-11 14:55:00,
2013-08-11 10:13:00,77.0,70.0,30.13,SW,223,3.0,6.0,78,0.00,,,0.00,,2013-08-11 15:13:00,
2013-08-11 10:23:00,77.0,70.0,30.13,SSW,209,2.0,7.0,79,0.00,,,0.00,,2013-08-11 15:23:00,
2013-08-11 10:46:00,78.0,70.0,30.13,SSW,198,3.0,8.0,76,0.00,,,0.00,,2013-08-11 15:46:00,
2013-08-11 10:55:00,79.0,71.0,30.13,WSW,240,2.0,7.0,76,0.00,,,0.00,,2013-08-11 15:55:00,
2013-08-11 11:12:00,80.0,71.0,30.14,SSW,204,2.0,7.0,75,0.00,,,0.00,,2013-08-11 16:12:00,
2013-08-11 11:25:00,80.0,72.0,30.14,SSE,149,1.0,7.0,76,0.00,,,0.00,,2013-08-11 16:25:00,
2013-08-11 11:36:00,79.0,69.0,30.14,SW,234,1.0,8.0,72,0.00,,,0.00,,2013-08-11 16:36:00,
2013-08-11 11:44:00,80.0,71.0,30.14,SSW,205,2.0,7.0,73,0.00,,,0.00,,2013-08-11 16:44:00,
2013-08-11 11:55:00,81.0,70.0,30.14,SW,223,1.0,6.0,70,0.00,,,0.00,,2013-08-11 16:55:00,
2013-08-11 12:05:00,80.0,69.0,30.13,West,259,2.0,7.0,70,0.00,,,0.00,,2013-08-11 17:05:00,
2013-08-11 12:12:00,81.0,71.0,30.13,WSW,247,2.0,6.0,71,0.00,,,0.00,,2013-08-11 17:12:00,
2013-08-11 12:24:00,81.0,69.0,30.13,SW,219,2.0,7.0,68,0.00,,,0.00,,2013-08-11 17:24:00,
2013-08-11 12:33:00,81.0,70.0,30.12,SW,235,2.0,7.0,70,0.00,,,0.00,,2013-08-11 17:33:00,
2013-08-11 12:44:00,81.0,71.0,30.13,SW,225,1.0,7.0,71,0.00,,,0.00,,2013-08-11 17:44:00,
2013-08-11 12:54:00,81.0,70.0,30.12,SW,220,1.0,7.0,70,0.00,,,0.00,,2013-08-11 17:54:00,
2013-08-11 13:05:00,82.0,70.0,30.13,South,169,3.0,9.0,67,0.00,,,0.00,,2013-08-11 18:05:00,
2013-08-11 13:17:00,82.0,70.0,30.12,SSW,193,3.0,10.0,67,0.00,,,0.00,,2013-08-11 18:17:00,
2013-08-11 13:23:00,83.0,70.0,30.11,SW,221,3.0,7.0,64,0.00,,,0.00,,2013-08-11 18:23:00,
2013-08-11 13:37:00,84.0,70.0,30.11,WSW,240,2.0,11.0,63,0.00,,,0.00,,2013-08-11 18:37:00,
2013-08-11 13:45:00,84.0,70.0,30.11,WSW,237,1.0,8.0,62,0.00,,,0.00,,2013-08-11 18:45:00,
2013-08-11 13:53:00,84.0,69.0,30.10,SW,228,2.0,8.0,60,0.00,,,0.00,,2013-08-11 18:53:00,
2013-08-11 14:04:00,85.0,70.0,30.10,SSW,204,1.0,8.0,61,0.00,,,0.00,,2013-08-11 19:04:00,
2013-08-11 14:13:00,84.0,70.0,30.11,West,261,1.0,6.0,62,0.00,,,0.00,,2013-08-11 19:13:00,
2013-08-11 14:23:00,84.0,68.0,30.10,SSW,209,1.0,6.0,58,0.00,,,0.00,,2013-08-11 19:23:00,
2013-08-11 14:32:00,85.0,71.0,30.10,SW,220,2.0,9.0,63,0.00,,,0.00,,2013-08-11 19:32:00,
2013-08-11 14:47:00,84.0,69.0,30.10,South,189,1.0,6.0,61,0.00,,,0.00,,2013-08-11 19:47:00,
2013-08-11 14:55:00,83.0,70.0,30.10,SSW,198,1.0,7.0,64,0.00,,,0.00,,2013-08-11 19:55:00,
2013-08-11 15:03:00,84.0,70.0,30.09,SW,219,0.0,7.0,63,0.00,,,0.00,,2013-08-11 20:03:00,
2013-08-11 15:17:00,85.0,70.0,30.09,SSW,207,2.0,7.0,62,0.00,,,0.00,,2013-08-11 20:17:00,
2013-08-11 15:25:00,85.0,68.0,30.09,SW,230,1.0,6.0,57,0.00,,,0.00,,2013-08-11 20:25:00,
2013-08-11 15:45:00,86.0,69.0,30.09,West,268,2.0,6.0,58,0.00,,,0.00,,2013-08-11 20:45:00,
2013-08-11 15:53:00,86.0,70.0,30.08,SW,219,2.0,7.0,59,0.00,,,0.00,,2013-08-11 20:53:00,
2013-08-11 16:04:00,86.0,70.0,30.08,WSW,248,2.0,8.0,59,0.00,,,0.00,,2013-08-11 21:04:00,
2013-08-11 16:12:00,85.0,69.0,30.08,SSE,167,1.0,5.0,59,0.00,,,0.00,,2013-08-11 21:12:00,
2013-08-11 16:33:00,86.0,68.0,30.07,SSW,195,0.0,7.0,56,0.00,,,0.00,,2013-08-11 21:33:00,
2013-08-11 16:46:00,86.0,70.0,30.07,South,177,2.0,6.0,59,0.00,,,0.00,,2013-08-11 21:46:00,
2013-08-11 17:03:00,84.0,68.0,30.07,South,187,0.0,5.0,59,0.00,,,0.00,,2013-08-11 22:03:00,
2013-08-11 17:13:00,84.0,70.0,30.07,SSW,203,1.0,4.0,62,0.00,,,0.00,,2013-08-11 22:13:00,
2013-08-11 17:24:00,84.0,68.0,30.07,SW,221,0.0,4.0,59,0.00,,,0.00,,2013-08-11 22:24:00,
2013-08-11 17:35:00,84.0,70.0,30.07,SW,223,1.0,6.0,62,0.00,,,0.00,,2013-08-11 22:35:00,
2013-08-11 17:46:00,84.0,69.0,30.06,SW,231,0.0,7.0,61,0.00,,,0.00,,2013-08-11 22:46:00,
2013-08-11 17:53:00,83.0,69.0,30.06,South,178,0.0,2.0,62,0.00,,,0.00,,2013-08-11 22:53:00,
2013-08-11 18:03:00,85.0,71.0,30.06,South,187,0.0,4.0,63,0.00,,,0.00,,2013-08-11 23:03:00,
2013-08-11 18:25:00,83.0,69.0,30.05,South,180,0.0,4.0,62,0.00,,,0.00,,2013-08-11 23:25:00,
2013-08-11 18:33:00,83.0,70.0,30.05,SW,214,0.0,1.0,64,0.00,,,0.00,,2013-08-11 23:33:00,
2013-08-11 18:45:00,83.0,70.0,30.04,SSW,207,0.0,2.0,65,0.00,,,0.00,,2013-08-11 23:45:00,
2013-08-11 18:55:00,82.0,68.0,30.03,SSW,192,0.0,3.0,63,0.00,,,0.00,,2013-08-11 23:55:00,
2013-08-11 19:04:00,82.0,68.0,30.03,SSW,195,0.0,1.0,62,0.00,,,0.00,,2013-08-12 00:04:00,
2013-08-11 19:23:00,82.0,68.0,30.03,SSW,200,0.0,2.0,63,0.00,,,0.00,,2013-08-12 00:23:00,
2013-08-11 19:34:00,81.0,68.0,30.03,SSW,200,0.0,0.0,65,0.00,,,0.00,,2013-08-12 00:34:00,
2013-08-11 19:46:00,81.0,69.0,30.03,SSW,200,0.0,0.0,66,0.00,,,0.00,,2013-08-12 00:46:00,
2013-08-11 19:53:00,81.0,69.0,30.03,SSW,199,0.0,0.0,67,0.00,,,0.00,,2013-08-12 00:53:00,
2013-08-11 20:05:00,80.0,69.0,30.03,SSW,199,0.0,0.0,69,0.00,,,0.00,,2013-08-12 01:05:00,
2013-08-11 20:13:00,79.0,69.0,30.03,SSW,199,0.0,0.0,71,0.00,,,0.00,,2013-08-12 01:13:00,
2013-08-11 20:23:00,78.0,69.0,30.04,SSW,199,0.0,0.0,74,0.00,,,0.00,,2013-08-12 01:23:00,
2013-08-11 20:34:00,78.0,69.0,30.04,SSW,199,0.0,0.0,75,0.00,,,0.00,,2013-08-12 01:34:00,
2013-08-11 20:44:00,77.0,69.0,30.04,SSW,193,0.0,0.0,76,0.00,,,0.00,,2013-08-12 01:44:00,
2013-08-11 20:53:00,76.0,68.0,30.04,SSW,194,0.0,0.0,77,0.00,,,0.00,,2013-08-12 01:53:00,
2013-08-11 21:05:00,75.0,68.0,30.05,SSW,194,0.0,0.0,78,0.00,,,0.00,,2013-08-12 02:05:00,
2013-08-11 21:13:00,74.0,67.0,30.04,SSW,194,0.0,0.0,80,0.00,,,0.00,,2013-08-12 02:13:00,
2013-08-11 21:23:00,74.0,68.0,30.04,SSW,194,0.0,0.0,81,0.00,,,0.00,,2013-08-12 02:23:00,
2013-08-11 21:34:00,74.0,67.0,30.04,SSW,194,0.0,0.0,80,0.00,,,0.00,,2013-08-12 02:34:00,
2013-08-11 21:45:00,74.0,67.0,30.04,SSW,198,0.0,0.0,79,0.00,,,0.00,,2013-08-12 02:45:00,
2013-08-11 21:53:00,74.0,67.0,30.04,SSE,167,0.0,1.0,79,0.00,,,0.00,,2013-08-12 02:53:00,
2013-08-11 22:05:00,74.0,67.0,30.05,South,182,0.0,0.0,78,0.00,,,0.00,,2013-08-12 03:05:00,
2013-08-11 22:14:00,74.0,67.0,30.06,South,182,0.0,0.0,79,0.00,,,0.00,,2013-08-12 03:14:00,
2013-08-11 22:25:00,73.0,68.0,30.06,South,182,0.0,0.0,83,0.00,,,0.00,,2013-08-12 03:25:00,
2013-08-11 22:35:00,72.0,68.0,30.06,South,182,0.0,0.0,86,0.00,,,0.00,,2013-08-12 03:35:00,
2013-08-11 22:45:00,71.0,67.0,30.07,South,181,0.0,0.0,88,0.00,,,0.00,,2013-08-12 03:45:00,
2013-08-11 22:54:00,71.0,68.0,30.06,South,181,0.0,0.0,90,0.00,,,0.00,,2013-08-12 03:54:00,
2013-08-11 23:02:00,70.0,67.0,30.07,South,181,0.0,0.0,91,0.00,,,0.00,,2013-08-12 04:02:00,
2013-08-11 23:12:00,70.0,67.0,30.07,South,182,0.0,0.0,91,0.00,,,0.00,,2013-08-12 04:12:00,
2013-08-11 23:22:00,70.0,68.0,30.06,South,181,0.0,0.0,92,0.00,,,0.00,,2013-08-12 04:22:00,
2013-08-11 23:33:00,70.0,68.0,30.06,South,181,0.0,0.0,92,0.00,,,0.00,,2013-08-12 04:33:00,
2013-08-11 23:43:00,70.0,68.0,30.06,South,181,0.0,0.0,92,0.00,,,0.00,,2013-08-12 04:43:00,
2013-08-11 23:52:00,70.0,68.0,30.05,South,181,0.0,0.0,92,0.00,,,0.00,,2013-08-12 04:52:00,